Temperature
21 20 20 20 19 19 19 18 18 18 18 17 17 17 17 17 17 17 17 17 17 17 17 17 17 17 17 17 17 17 17 17 17 17 17 17 17 17 17 17 17 17 16
20 20 20 20 19 19 19 18 18 18 18 18 18 18 18 17 17 17 17 17 17 17 17 17 17 17 17 17 17 17 17 17 17 17 17 17 17 17 17 17 17 17 17
20 20 20 20 19 19 19 19 18 18 18 18 18 17 17 17 17 17 17 17 17 17 17 17 17 17 17 17 17 17 17 17 17 17 17 17 17 17 17 17 17 17 17
20 20 20 20 20 19 19 18 18 18 18 18 18 18 17 17 18 18 17 17 17 17 17 17 17 17 17 17 17 17 17 17 17 17 17 17 17 17 17 17 17 17 17
20 20 20 20 19 19 19 18 18 18 18 18 18 18 18 18 17 17 17 17 17 17 17 17 17 17 17 17 17 17 17 17 17 17 17 17 17 17 17 17 17 17 17
20 20 20 20 19 19 18 18 18 18 18 18 18 18 18 18 17 17 17 17 17 17 17 17 17 17 17 17 17 17 17 17 17 17 17 17 17 17 17 17 17 17 17
20 20 20 19 19 19 18 18 18 18 18 18 17 17 17 17 17 17 17 17 17 17 17 17 17 17 17 17 17 17 17 17 17 17 17 17 17 17 17 17 17 17 17
20 20 20 20 19 19 19 18 18 18 18 18 17 17 17 17 17 17 17 17 17 17 17 17 17 17 17 17 17 16 16 16 17 17 17 17 17 17 17 17 17 17 17
20 20 20 20 19 19 19 18 18 18 18 18 17 17 17 17 17 17 17 17 17 17 17 17 17 17 17 16 16 16 16 16 16 16 16 16 16 16 16 16 16 16 16
20 20 20 20 19 19 19 18 18 18 18 18 17 17 17 17 17 17 17 17 17 17 17 17 17 17 17 16 16 16 16 16 16 16 16 16 16 16 16 16 16 16 16
21 21 20 20 19 19 19 18 18 18 18 18 18 17 17 17 17 17 17 17 17 17 17 17 16 16 16 16 16 16 16 16 16 16 16 16 16 16 16 16 16 16 16
21 21 20 20 19 19 19 18 18 18 18 18 17 17 17 17 17 17 17 17 17 16 16 16 16 16 16 16 16 16 16 16 16 16 16 16 16 15 15 15 15 15 15
21 21 20 20 20 19 19 19 18 18 18 18 17 17 17 17 17 17 17 17 16 16 16 16 16 16 16 16 16 16 16 16 15 15 15 15 15 15 15 15 15 15 15
21 21 20 20 20 19 19 18 18 18 18 18 17 17 17 17 17 17 17 16 16 16 16 16 16 16 16 16 16 16 15 15 15 15 15 15 15 15 15 14 14 14 14
20 21 20 20 20 19 19 19 18 18 18 18 17 17 17 17 17 16 16 16 16 16 16 16 16 15 15 15 15 15 15 15 15 15 15 14 14 14 14 14 14 13 13
21 21 20 20 20 20 19 19 18 18 18 18 17 17 17 16 16 16 16 16 16 16 15 15 15 15 15 15 15 15 15 15 14 14 14 14 14 14 13 13 13 13 13
21 21 21 21 20 20 20 19 18 18 18 17 17 17 16 16 16 16 16 15 15 15 15 15 15 15 15 15 15 14 14 14 14 14 13 13 13 13 13 12 12 12 12
21 21 21 20 20 19 19 19 18 18 17 17 17 16 16 16 15 15 15 15 15 15 15 15 14 14 14 14 14 14 14 13 13 13 13 13 12 12 12 12 11 11 11
21 20 20 20 20 19 19 18 18 17 17 17 16 16 16 15 15 15 15 15 15 15 14 14 14 14 14 13 13 13 13 13 12 12 12 12 11 11 11 11 11 10 10
20 20 20 19 19 18 18 18 17 17 17 16 16 16 15 15 15 15 14 14 14 14 14 14 13 13 13 13 13 12 12 12 12 11 11 11 10 10 10 10 10 10 9
19 19 19 19 19 18 18 17 17 17 16 16 15 15 15 14 14 14 14 14 14 13 13 13 13 12 12 12 12 11 12 11 11 11 10 10 9 9 9 9 9 9 8
19 19 19 18 18 18 17 17 17 16 16 15 15 15 14 14 14 14 13 13 13 13 13 12 12 11 11 11 11 11 11 10 10 10 9 9 9 9 9 8 8 8 8
18 18 18 17 17 17 17 17 16 15 15 15 15 14 14 14 13 13 13 13 12 12 12 11 11 11 10 10 10 10 10 10 9 9 9 8 8 8 8 7 7 7 7
17 17 17 17 16 16 16 16 15 15 15 14 14 14 13 13 13 12 12 12 12 11 11 11 10 10 10 10 10 9 9 9 8 8 8 8 7 7 7 7 6 6 6
16 16 16 16 15 15 15 15 15 14 14 14 13 13 13 12 12 11 11 11 11 11 10 10 10 10 9 9 9 9 8 8 8 8 7 7 7 7 6 6 6 6 5
15 15 15 15 15 14 14 14 14 14 13 13 13 12 12 12 11 11 10 10 10 9 9 9 9 9 9 8 8 8 7 7 7 7 7 7 6 6 6 6 5 5 5
Wind_Speed
4 5 7 8 9 10 10 11 11 10 9 6 6 5 5 5 4 6 9 9 9 10 8 5 5 5 4 5 5 3 3 2 2 2 1 1 1 2 3 4 4 6 8
4 6 6 7 9 10 10 10 10 10 9 7 6 4 4 4 4 4 6 9 9 9 8 6 5 5 4 4 5 4 3 2 2 3 2 1 2 2 2 3 4 5 6
7 7 7 7 7 9 9 10 10 9 9 8 5 4 3 2 2 3 4 6 9 10 9 8 6 5 5 5 5 5 5 4 2 2 3 3 3 2 2 2 3 4 4
6 6 6 6 7 7 7 8 8 9 8 8 7 8 6 5 5 4 4 5 8 9 10 9 8 6 5 5 5 5 4 4 3 2 1 2 3 2 1 2 1 2 3
7 7 7 7 6 7 7 7 7 7 8 8 9 8 5 4 3 3 4 4 4 6 8 8 8 6 5 5 5 5 5 4 4 4 2 2 1 1 2 1 2 1 1
7 7 6 5 4 6 7 7 7 7 7 8 8 8 7 6 5 4 4 4 3 3 5 7 7 6 5 5 5 5 6 5 4 4 3 3 3 3 3 3 2 1 1
7 8 7 7 5 6 7 7 8 7 7 8 8 7 7 8 8 6 6 5 4 3 5 5 5 5 6 6 5 5 5 5 5 5 4 3 3 3 3 3 2 1 1
7 7 8 8 7 7 6 7 7 7 7 7 7 6 7 6 6 6 6 6 5 5 5 5 6 6 6 6 5 4 4 4 5 5 4 3 3 3 3 4 3 2 1
6 6 6 6 7 7 7 7 8 6 7 7 6 6 6 6 6 6 5 4 4 4 5 5 5 5 6 5 5 4 4 4 4 4 4 3 3 3 3 3 3 4 3
6 5 5 5 5 6 5 6 6 6 6 6 6 5 5 5 5 5 5 5 4 4 5 5 5 5 5 5 5 4 4 4 4 3 4 3 3 2 2 3 3 3 4
7 6 5 5 5 5 5 5 5 5 5 5 5 5 4 4 5 4 4 4 3 4 4 4 4 4 4 4 4 4 4 4 4 3 4 4 3 2 2 2 2 3 3
7 7 6 6 6 6 5 5 5 5 4 4 4 5 4 5 4 4 3 4 4 4 4 4 4 4 4 4 5 4 4 4 4 4 4 3 3 2 2 2 2 3 3
6 6 6 6 6 6 6 5 5 5 4 4 4 4 5 5 4 4 3 3 4 3 4 4 4 3 3 3 3 4 4 3 3 3 4 3 3 3 2 2 2 2 2
7 7 7 6 6 6 6 5 4 4 4 5 5 5 5 4 4 4 4 3 4 4 4 3 3 3 3 3 3 4 4 4 3 3 3 3 3 3 3 3 3 4 4
7 8 7 6 6 6 5 5 5 4 5 5 5 5 5 5 5 4 4 4 4 4 4 4 3 3 2 3 4 5 5 5 5 4 3 3 5 5 4 4 4 5 5
8 8 7 7 7 7 7 6 6 5 5 6 5 5 6 5 5 5 5 5 5 5 5 4 4 3 2 4 6 6 6 5 5 5 4 5 6 8 10 10 8 7 6
8 8 7 7 7 7 7 7 6 6 6 6 6 6 6 6 5 5 6 6 5 5 5 5 4 4 4 6 8 9 6 6 5 5 5 5 6 8 8 11 13 11 10
7 6 6 6 5 6 6 6 7 7 7 7 6 6 6 6 6 6 6 6 5 6 5 5 5 5 6 8 10 11 8 7 6 5 5 6 6 6 8 10 10 9 9
5 5 5 5 6 7 7 8 7 7 7 6 6 6 7 7 7 6 6 5 6 6 5 5 6 6 7 9 11 10 7 7 7 6 6 7 7 8 10 10 10 9 8
4 5 5 6 7 7 8 9 8 7 7 6 7 7 7 7 7 6 6 5 6 7 7 7 6 7 6 8 9 9 7 7 7 6 7 9 8 8 9 8 9 8 6
5 5 6 6 6 7 8 8 7 6 6 7 7 7 7 7 7 7 6 7 7 8 7 7 7 7 7 8 9 9 6 7 7 6 5 6 10 11 11 9 7 8 7
6 6 6 5 5 7 9 8 6 6 7 8 8 8 7 7 7 8 7 7 7 8 7 7 7 6 6 7 9 10 10 8 8 7 6 7 12 12 12 9 10 11 9
5 6 7 7 5 5 7 9 6 7 8 9 8 8 8 7 7 8 8 6 6 6 5 5 5 5 5 6 10 11 12 11 8 8 10 11 13 12 10 12 12 9 7
6 6 7 7 6 5 6 6 7 7 9 9 8 8 8 8 7 6 5 5 5 5 5 6 6 5 5 4 5 6 8 10 9 8 11 13 13 11 10 9 8 7 6
5 6 6 6 6 6 6 6 6 8 9 9 8 8 8 8 8 7 6 5 4 4 6 6 6 6 5 4 6 7 6 6 7 7 6 6 6 7 6 6 6 6 5
5 6 6 6 6 6 6 5 6 7 9 8 7 6 7 7 7 8 8 13 10 12 11 9 8 6 8 10 11 11 11 11 11 8 6 6 6 6 5 6 5 5 4
Wind_Direction
186 161 168 168 167 166 170 175 174 172 166 167 170 172 183 188 194 202 200 196 192 187 180 176 166 165 169 173 162 143 142 137 127 100 46 356 321 243 240 237 236 239 236
159 153 153 162 170 174 175 176 179 175 175 179 173 172 172 185 192 193 191 193 192 187 187 176 174 171 164 164 166 154 144 150 150 136 118 8 338 312 249 227 231 240 238
177 166 162 167 166 171 179 183 180 178 180 175 158 142 130 131 162 184 190 190 188 187 184 179 175 175 173 179 181 171 161 166 172 166 149 155 222 281 312 259 241 236 229
171 167 167 172 175 175 171 176 176 178 180 175 174 173 180 186 192 186 185 183 183 183 183 180 178 178 178 179 186 178 170 158 171 184 185 165 159 164 288 318 282 249 240
173 172 176 182 177 169 169 173 169 176 178 181 183 182 185 181 165 164 171 180 183 185 184 180 177 178 181 185 183 172 176 175 173 176 168 153 133 146 166 249 306 317 270
172 172 164 157 164 160 165 166 172 179 177 179 181 183 182 171 166 175 184 187 185 192 190 183 182 183 184 189 190 183 181 186 180 179 178 170 167 183 178 200 233 256 297
166 162 155 158 172 174 170 170 175 182 179 180 185 186 183 179 183 186 192 187 191 200 202 189 185 187 191 191 183 178 186 188 185 187 195 197 196 170 167 172 196 222 287
166 169 168 171 178 181 174 174 181 185 179 183 190 188 184 183 186 186 185 191 199 206 201 193 192 192 189 189 179 182 193 189 192 196 191 196 206 191 181 175 168 183 268
164 173 169 166 168 173 177 179 179 178 179 183 183 186 188 186 186 184 183 190 196 202 195 194 194 193 187 183 177 188 195 183 191 196 193 200 211 200 199 186 178 174 201
158 164 165 165 170 171 166 162 168 176 177 176 183 188 187 186 180 175 184 190 192 190 182 185 188 187 185 184 181 187 188 183 195 193 190 199 210 200 196 193 191 185 186
165 164 161 159 158 150 154 161 165 165 169 176 178 177 172 167 164 170 182 184 181 178 181 180 179 178 177 176 176 184 183 188 195 191 188 203 198 193 195 184 175 177 170
161 157 154 151 152 153 156 164 167 172 178 174 166 169 162 156 157 169 175 169 171 168 169 168 169 178 177 173 177 185 183 187 196 195 183 192 181 181 183 173 179 179 174
156 149 151 158 163 163 164 166 169 174 170 162 159 157 156 156 162 167 161 155 158 155 154 158 164 169 171 172 176 175 169 173 185 185 181 180 162 167 161 152 154 153 148
164 161 166 171 174 166 161 160 159 157 151 147 149 150 154 153 150 142 135 141 144 145 144 138 143 150 151 148 146 147 140 139 138 138 148 160 163 168 157 143 137 128 120
174 175 176 177 170 158 152 150 150 145 143 139 141 146 137 127 123 118 115 114 114 121 119 116 116 120 132 141 141 138 135 128 117 103 100 103 110 117 126 132 134 133 127
183 183 181 177 173 167 158 153 152 148 142 141 138 127 120 117 114 111 104 99 93 93 96 100 105 104 111 115 124 129 125 122 120 115 99 87 86 92 93 95 96 107 124
184 184 185 186 178 170 159 159 158 146 141 139 133 128 127 124 121 118 109 104 98 93 92 92 96 94 88 98 109 114 114 108 104 102 99 96 86 88 91 84 79 74 80
179 180 175 170 158 150 143 142 139 137 135 133 129 126 125 121 116 110 106 101 97 96 92 88 88 87 83 93 102 102 96 90 83 82 92 98 89 95 101 94 83 73 64
160 162 162 155 144 144 143 136 134 131 131 132 129 127 128 126 121 115 109 102 102 96 91 88 86 86 80 85 94 97 97 91 81 76 79 90 89 93 103 102 97 86 72
126 134 132 127 134 140 139 137 138 137 141 141 133 127 125 127 125 121 113 103 101 97 92 83 79 86 85 83 91 99 105 101 92 77 70 77 90 92 100 107 109 101 86
109 112 116 126 137 135 130 135 136 143 140 128 121 119 122 123 120 114 108 106 104 98 93 88 77 75 80 82 85 94 107 112 104 93 82 78 88 88 88 94 103 113 110
101 107 111 109 117 133 136 137 141 137 126 121 118 117 117 117 116 113 108 106 109 107 102 96 84 69 69 79 86 89 96 106 106 102 96 91 89 88 87 90 97 101 98
103 106 115 109 101 113 133 140 141 135 129 122 119 115 111 109 114 118 118 112 109 113 112 109 102 90 81 81 86 91 95 97 98 100 100 95 90 87 83 82 89 92 95
107 110 113 114 106 100 105 122 132 133 129 124 120 118 114 107 101 100 107 115 120 122 121 118 114 106 96 92 94 97 97 96 97 96 91 86 81 79 76 74 73 73 83
102 109 117 119 114 109 105 109 121 126 125 123 122 119 115 113 102 88 76 92 84 123 133 133 132 130 122 108 112 114 109 112 113 107 91 84 85 83 78 75 72 72 75
98 99 105 112 114 115 109 107 115 125 129 126 124 122 120 115 114 109 85 62 72 79 88 99 111 98 107 113 106 103 105 108 113 103 101 98 97 98 97 95 84 74 74
Height
1508 1510 1512 1513 1515 1518 1521 1524 1527 1530 1534 1538 1542 1545 1548 1551 1554 1557 1559 1562 1564 1566 1568 1570 1572 1573 1575 1576 1578 1580 1581 1582 1583 1585 1585 1586 1586 1587 1588 1588 1589 1590 1590
1507 1508 1510 1512 1513 1516 1519 1522 1525 1529 1533 1537 1541 1544 1547 1550 1553 1555 1558 1560 1563 1565 1567 1569 1571 1572 1574 1575 1577 1579 1580 1581 1583 1584 1584 1585 1586 1586 1586 1587 1588 1588 1589
1505 1507 1509 1510 1512 1515 1518 1520 1524 1528 1532 1536 1539 1543 1546 1549 1551 1554 1556 1559 1561 1563 1565 1567 1570 1571 1573 1574 1576 1577 1579 1580 1581 1582 1584 1584 1584 1584 1585 1585 1586 1587 1587
1504 1506 1508 1510 1512 1514 1517 1520 1523 1526 1530 1534 1537 1540 1543 1545 1548 1552 1555 1557 1559 1561 1564 1566 1568 1570 1571 1573 1574 1575 1577 1578 1579 1581 1582 1583 1583 1584 1584 1584 1584 1585 1586
1502 1504 1507 1509 1512 1514 1516 1519 1522 1525 1529 1532 1535 1538 1542 1545 1548 1551 1553 1555 1558 1560 1562 1564 1566 1568 1569 1571 1572 1573 1575 1576 1578 1579 1580 1580 1581 1582 1583 1582 1583 1583 1584
1501 1503 1506 1509 1511 1513 1516 1518 1521 1524 1527 1531 1534 1537 1540 1543 1546 1548 1551 1553 1555 1557 1560 1562 1564 1565 1567 1569 1570 1571 1573 1574 1575 1577 1578 1578 1579 1580 1580 1581 1581 1581 1582
1499 1502 1505 1507 1510 1512 1515 1517 1520 1523 1526 1529 1532 1535 1538 1541 1544 1546 1548 1550 1553 1555 1557 1559 1561 1563 1564 1566 1568 1569 1570 1571 1573 1574 1575 1576 1577 1578 1578 1579 1579 1580 1580
1499 1501 1504 1506 1509 1511 1514 1517 1519 1522 1525 1527 1530 1534 1537 1539 1541 1543 1546 1548 1550 1553 1555 1557 1559 1560 1562 1564 1565 1566 1568 1569 1570 1571 1572 1573 1574 1575 1576 1577 1577 1577 1578
1499 1501 1503 1506 1509 1511 1514 1516 1519 1521 1524 1526 1529 1532 1534 1537 1539 1541 1543 1546 1548 1550 1552 1554 1556 1558 1559 1561 1562 1563 1564 1566 1567 1568 1569 1570 1571 1572 1573 1574 1574 1576 1575
1499 1502 1504 1506 1509 1511 1514 1516 1519 1521 1523 1525 1528 1530 1532 1534 1536 1539 1541 1543 1545 1548 1550 1551 1553 1555 1556 1557 1559 1560 1561 1562 1563 1565 1566 1566 1567 1568 1569 1570 1570 1571 1572
1497 1501 1504 1506 1508 1511 1514 1516 1518 1520 1522 1524 1526 1528 1530 1532 1534 1537 1539 1541 1543 1545 1547 1548 1550 1552 1553 1554 1556 1557 1558 1558 1559 1561 1562 1563 1564 1564 1565 1566 1566 1567 1568
1497 1500 1503 1506 1508 1510 1513 1515 1517 1519 1521 1523 1524 1526 1528 1530 1532 1535 1537 1539 1541 1542 1544 1546 1547 1548 1550 1551 1552 1553 1554 1555 1556 1557 1558 1559 1560 1560 1561 1561 1562 1563 1563
1497 1500 1502 1505 1507 1509 1512 1514 1516 1518 1520 1521 1522 1524 1526 1528 1531 1533 1535 1537 1538 1540 1541 1543 1544 1545 1546 1548 1549 1550 1551 1552 1552 1553 1554 1555 1556 1556 1557 1558 1558 1559 1560
1496 1499 1501 1504 1506 1508 1511 1513 1515 1517 1518 1520 1521 1523 1525 1527 1529 1532 1533 1535 1536 1538 1539 1540 1542 1543 1544 1545 1546 1547 1548 1548 1549 1550 1551 1551 1552 1552 1553 1554 1555 1555 1556
1495 1497 1500 1503 1505 1507 1510 1512 1515 1517 1518 1519 1520 1522 1524 1526 1529 1530 1532 1533 1535 1536 1537 1539 1540 1541 1542 1543 1543 1544 1545 1546 1546 1547 1548 1548 1549 1549 1550 1551 1551 1552 1553
1493 1496 1499 1501 1504 1506 1509 1511 1514 1516 1517 1519 1520 1522 1524 1526 1528 1529 1531 1532 1533 1534 1536 1537 1538 1539 1540 1541 1542 1542 1543 1543 1544 1545 1545 1546 1547 1547 1548 1548 1549 1550 1551
1492 1495 1498 1501 1503 1505 1507 1510 1513 1515 1517 1519 1520 1522 1524 1525 1527 1528 1529 1530 1532 1533 1534 1536 1537 1538 1538 1539 1540 1540 1541 1541 1542 1543 1544 1544 1545 1546 1546 1547 1548 1549 1549
1491 1494 1497 1500 1502 1505 1507 1510 1512 1514 1516 1518 1519 1522 1524 1525 1527 1528 1529 1530 1531 1532 1534 1535 1536 1536 1537 1538 1538 1539 1540 1540 1541 1542 1543 1543 1544 1545 1545 1546 1547 1547 1548
1490 1493 1496 1499 1501 1503 1506 1508 1511 1513 1515 1517 1519 1521 1523 1524 1526 1527 1529 1530 1531 1532 1533 1534 1535 1536 1536 1537 1538 1539 1539 1539 1540 1541 1542 1543 1544 1544 1545 1546 1546 1547 1548
1490 1493 1495 1498 1500 1502 1505 1507 1510 1512 1514 1516 1518 1520 1522 1524 1525 1526 1528 1529 1530 1531 1533 1534 1535 1535 1536 1537 1537 1538 1539 1539 1540 1541 1542 1543 1544 1545 1546 1546 1547 1547 1549
1490 1493 1495 1497 1499 1502 1504 1506 1509 1511 1513 1515 1517 1519 1521 1523 1524 1526 1527 1529 1530 1531 1532 1533 1534 1535 1536 1537 1537 1538 1539 1539 1540 1541 1542 1544 1545 1546 1547 1547 1547 1548 1549
1490 1492 1495 1497 1499 1500 1503 1505 1508 1511 1513 1515 1516 1518 1520 1522 1523 1525 1526 1528 1529 1531 1532 1533 1534 1535 1536 1537 1538 1539 1540 1540 1541 1542 1543 1545 1546 1547 1547 1548 1548 1549 1550
1490 1492 1494 1497 1499 1500 1502 1504 1507 1510 1512 1514 1515 1517 1519 1521 1523 1525 1526 1527 1528 1529 1531 1532 1533 1535 1536 1537 1539 1540 1541 1541 1542 1543 1544 1546 1547 1548 1548 1549 1550 1551 1551
1490 1491 1494 1496 1498 1500 1502 1504 1506 1509 1511 1512 1514 1516 1518 1520 1522 1524 1525 1527 1528 1529 1530 1532 1533 1535 1536 1538 1539 1540 1541 1542 1543 1544 1546 1547 1548 1549 1550 1551 1552 1552 1553
1489 1491 1493 1495 1497 1499 1502 1504 1506 1508 1510 1511 1513 1515 1517 1519 1521 1523 1525 1527 1528 1530 1531 1532 1533 1535 1536 1538 1540 1541 1542 1544 1545 1546 1547 1549 1550 1551 1552 1553 1553 1554 1555
1489 1491 1493 1495 1497 1499 1501 1503 1505 1507 1509 1511 1513 1515 1517 1519 1521 1523 1524 1527 1529 1530 1532 1533 1535 1536 1538 1540 1541 1543 1544 1546 1547 1548 1549 1551 1552 1553 1553 1554 1555 1555 1556